Tracking 30923 objects as of 1-Jul-2025
HD Live streaming from Space Station
objects crossing your sky now

ONEWEB-0274

Track ONEWEB-0274 now!
10-day predictions
ONEWEB-0274 is classified as:


NORAD ID: 48992
Int'l Code: 2021-061AB
Perigee: 1,203.4 km
Apogee: 1,206.3 km
Inclination: 87.9 °
Period: 109.4 minutes
Semi major axis: 7575 km
RCS: Unknown
Launch date: July 1, 2021
Source: United Kingdom (UK)
Launch site: VOSTOCHNY COSMODROME (VOSTO)
Your satellite tracking list
Your tracking list is empty




NASA's NSSDC Master Catalog

Two Line Element Set (TLE):
1 48992U 21060AB  25181.83056998  .00000067  00000-0  14238-3 0  9990
2 48992  87.9050 298.8486 0001919 111.7680 248.3655 13.16594888193393
Source of the keplerian elements: AFSPC